Terminalur

Vevmynd ímóti Terminalinum

Ímóti Miđvági Ímóti Sřrvági


Veđriđ á flogvřllinum (metar):

EKVG 191920Z AUTO 16012KT 7000NDV OVC004/// 08/08 Q1012

METAR / TAF frá DMI fyri Vágar                      Veđurtíđindi frá Vága Floghavn

Atlantic Airways

Atlantic Airways heimasíđa

Tíđindi    .

26. januar 2015
Áheitan viđvíkjandi lasaraljós

Veđriđ

Kunning

Vevmyndir

Terminalur